Weather History for Albuquerque Double Eagle, NM

Change the Weather History Date:

Friday, November 23, 2012

  Actual Average Record
Temperature  
Mean Temperature 38 °F -  
Max Temperature 51 °F - - ()
Min Temperature 26 °F - - ()
Degree Days  
Heating Degree Days 26    
Moisture  
Dew Point 16 °F    
Average Humidity 46    
Maximum Humidity 69    
Minimum Humidity 28    
Precipitation  
Precipitation 0.00 in - - ()
Sea Level Pressure  
Sea Level Pressure 30.44 in    
Wind  
Wind Speed 3 mph (West)    
Max Wind Speed 10 mph    
Max Gust Speed 18 mph    
Visibility 10 miles    
Events      
T = Trace of Precipitation, MM = Missing Value Source: NWS Daily Summary

Daily Weather History Graph

Daily Weather History Graph

Search for Another Location

Airport:

Trip Planner

Search our weather history database for the weather conditions in past years. The results will help you decide how hot, cold, wet, or windy it might be!

Date:

Astronomy

Nov. 23, 2012 Rise Set
Actual Time 6:50 AM MST 4:57 PM MST
Civil Twilight 6:22 AM MST 5:24 PM MST
Nautical Twilight 5:51 AM MST 5:55 PM MST
Astronomical Twilight 5:21 AM MST 6:25 PM MST
Moon 2:05 PM MST (11/23) 2:20 AM MST (11/23)
Length of Visible Light 11h 01m
Length of Day
10h 06m
Waxing Gibbous, 80% of the Moon is Illuminated
Nov 23
Waxing Gibbous
Nov 28
Full
Dec 6
Last Quarter
Dec 13
New
Dec 19
First Quarter

Hourly Weather History & Observations

Time (MST) Temp. Windchill Dew Point Humidity Pressure Visibility Wind Dir Wind Speed Gust Speed Precip Events Conditions
12:35 AM 30.2 °F 26.7 °F 10.4 °F 44% 30.39 in 10.0 mi SE 3.5 mph - N/A   Clear
12:55 AM 32.0 °F 27.5 °F 12.2 °F 44% 30.39 in 10.0 mi SSW 4.6 mph - N/A   Clear
1:15 AM 32.0 °F 28.7 °F 12.2 °F 44% 30.39 in 10.0 mi WSW 3.5 mph - N/A   Clear
1:35 AM 33.8 °F 30.8 °F 14.0 °F 44% 30.39 in 10.0 mi SSW 3.5 mph - N/A   Clear
1:55 AM 35.6 °F 32.8 °F 15.8 °F 44% 30.40 in 10.0 mi SSE 3.5 mph - N/A   Clear
2:15 AM 39.2 °F 33.0 °F 19.4 °F 45% 30.40 in 10.0 mi SE 9.2 mph 18.4 mph N/A   Clear
2:35 AM 39.2 °F 32.5 °F 19.4 °F 45% 30.41 in 10.0 mi SE 10.4 mph - N/A   Clear
2:55 AM 35.6 °F 32.8 °F 17.6 °F 48% 30.42 in 10.0 mi SSE 3.5 mph - N/A   Clear
3:15 AM 35.6 °F 30.7 °F 17.6 °F 48% 30.43 in 10.0 mi South 5.8 mph - N/A   Clear
3:35 AM 32.0 °F 26.4 °F 17.6 °F 55% 30.43 in 10.0 mi North 5.8 mph - N/A   Clear
3:55 AM 32.0 °F 26.4 °F 17.6 °F 55% 30.43 in 10.0 mi North 5.8 mph - N/A   Clear
4:15 AM 32.0 °F 28.7 °F 15.8 °F 51% 30.44 in 10.0 mi NW 3.5 mph - N/A   Clear
4:35 AM 30.2 °F 26.7 °F 15.8 °F 55% 30.44 in 10.0 mi NW 3.5 mph - N/A   Clear
5:50 AM 28.4 °F 21.2 °F 17.6 °F 64% 30.46 in 10.0 mi NNW 6.9 mph - N/A   Clear
6:50 AM 26.6 °F 21.2 °F 17.6 °F 69% 30.48 in 10.0 mi North 4.6 mph - N/A   Partly Cloudy
7:50 AM 32.0 °F - 19.4 °F 60% 30.52 in 10.0 mi Calm Calm - N/A   Clear
8:50 AM 39.2 °F 35.0 °F 21.2 °F 49% 30.54 in 10.0 mi North 5.8 mph - N/A   Clear
9:50 AM 42.8 °F - 19.4 °F 39% 30.55 in 10.0 mi Calm Calm - N/A   Clear
10:50 AM 44.6 °F - 19.4 °F 37% 30.54 in 10.0 mi Calm Calm - N/A   Clear
11:50 AM 48.2 °F - 21.2 °F 34% 30.51 in 10.0 mi NNW 4.6 mph - N/A   Clear
12:50 PM 50.0 °F - 21.2 °F 32% 30.49 in 10.0 mi Calm Calm - N/A   Clear
1:50 PM 50.0 °F - 19.4 °F 30% 30.46 in 10.0 mi Variable 5.8 mph - N/A   Clear
2:50 PM 50.0 °F - 19.4 °F 30% 30.44 in 10.0 mi Calm Calm - N/A   Clear
3:50 PM 51.8 °F - 19.4 °F 28% 30.43 in 10.0 mi Calm Calm - N/A   Clear
4:50 PM 48.2 °F - 19.4 °F 32% 30.43 in 10.0 mi Calm Calm - N/A   Clear
9:15 PM 30.2 °F - 12.2 °F 47% 30.43 in 10.0 mi Calm Calm - N/A   Clear
9:35 PM 32.0 °F - 15.8 °F 51% 30.43 in 10.0 mi Calm Calm - N/A   Clear
9:55 PM 32.0 °F - 14.0 °F 48% 30.43 in 10.0 mi Calm Calm - N/A   Clear
10:15 PM 32.0 °F - 15.8 °F 51% 30.43 in 10.0 mi Calm Calm - N/A   Clear
10:35 PM 32.0 °F - 14.0 °F 48% 30.43 in 10.0 mi Calm Calm - N/A   Clear
10:55 PM 28.4 °F - 10.4 °F 47% 30.43 in 10.0 mi Calm Calm - N/A   Clear
11:15 PM 28.4 °F - 12.2 °F 51% 30.42 in 10.0 mi Calm Calm - N/A   Clear
11:35 PM 32.0 °F - 14.0 °F 48% 30.42 in 10.0 mi Calm Calm - N/A   Clear
11:55 PM 28.4 °F - 12.2 °F 51% 30.42 in 10.0 mi Calm Calm - N/A   Clear